Year,Month,Day,Hour,Minute,Value (Times are PST for temperature in C)
2010,07,08,00,00,23.30
2010,07,08,00,01,23.30
2010,07,08,00,02,23.20
2010,07,08,00,03,23.10
2010,07,08,00,04,23.10
2010,07,08,00,05,23.00
2010,07,08,00,06,22.90
2010,07,08,00,07,22.90
2010,07,08,00,08,22.80
2010,07,08,00,09,22.80
2010,07,08,00,10,22.70
2010,07,08,00,11,22.60
2010,07,08,00,12,22.60
2010,07,08,00,13,22.50
2010,07,08,00,14,22.40
2010,07,08,00,15,22.30
2010,07,08,00,16,22.30
2010,07,08,00,17,22.20
2010,07,08,00,18,22.10
2010,07,08,00,19,22.00
2010,07,08,00,20,22.00
2010,07,08,00,21,21.90
2010,07,08,00,22,21.90
2010,07,08,00,23,21.80
2010,07,08,00,24,21.80
2010,07,08,00,25,21.80
2010,07,08,00,26,21.70
2010,07,08,00,27,21.70
2010,07,08,00,28,21.70
2010,07,08,00,29,21.60
2010,07,08,00,30,21.60
2010,07,08,00,31,21.60
2010,07,08,00,32,21.50
2010,07,08,00,33,21.50
2010,07,08,00,34,21.40
2010,07,08,00,35,21.40
2010,07,08,00,36,21.40
2010,07,08,00,37,21.30
2010,07,08,00,38,21.30
2010,07,08,00,39,21.30
2010,07,08,00,40,21.30
2010,07,08,00,41,21.20
2010,07,08,00,42,21.20
2010,07,08,00,43,21.20
2010,07,08,00,44,21.10
2010,07,08,00,45,21.10
2010,07,08,00,46,21.00
2010,07,08,00,47,21.00
2010,07,08,00,48,20.90
2010,07,08,00,49,20.90
2010,07,08,00,50,20.90
2010,07,08,00,51,20.80
2010,07,08,00,52,20.80
2010,07,08,00,53,20.70
2010,07,08,00,54,20.70
2010,07,08,00,55,20.70
2010,07,08,00,56,20.60
2010,07,08,00,57,20.60
2010,07,08,00,58,20.50
2010,07,08,00,59,20.50
2010,07,08,01,00,20.40
2010,07,08,01,01,20.40
2010,07,08,01,02,20.30
2010,07,08,01,03,20.30
2010,07,08,01,04,20.20
2010,07,08,01,05,20.20
2010,07,08,01,06,20.20
2010,07,08,01,07,20.10
2010,07,08,01,08,20.10
2010,07,08,01,09,20.10
2010,07,08,01,10,20.00
2010,07,08,01,11,20.00
2010,07,08,01,12,19.90
2010,07,08,01,13,19.90
2010,07,08,01,14,19.90
2010,07,08,01,15,19.90
2010,07,08,01,16,19.90
2010,07,08,01,17,19.90
2010,07,08,01,18,19.90
2010,07,08,01,19,19.80
2010,07,08,01,20,19.80
2010,07,08,01,21,19.80
2010,07,08,01,22,19.80
2010,07,08,01,23,19.80
2010,07,08,01,24,19.80
2010,07,08,01,25,19.80
2010,07,08,01,26,19.80
2010,07,08,01,27,19.80
2010,07,08,01,28,19.70
2010,07,08,01,29,19.70
2010,07,08,01,30,19.70
2010,07,08,01,31,19.70
2010,07,08,01,32,19.70
2010,07,08,01,33,19.70
2010,07,08,01,34,19.70
2010,07,08,01,35,19.70
2010,07,08,01,36,19.70
2010,07,08,01,37,19.70
2010,07,08,01,38,19.70
2010,07,08,01,39,19.70
2010,07,08,01,40,19.60
2010,07,08,01,41,19.60
2010,07,08,01,42,19.60
2010,07,08,01,43,19.70
2010,07,08,01,44,19.70
2010,07,08,01,45,19.70
2010,07,08,01,46,19.70
2010,07,08,01,47,19.70
2010,07,08,01,48,19.80
2010,07,08,01,49,19.80
2010,07,08,01,50,19.80
2010,07,08,01,51,19.80
2010,07,08,01,52,19.80
2010,07,08,01,53,19.80
2010,07,08,01,54,19.80
2010,07,08,01,55,19.80
2010,07,08,01,56,19.80
2010,07,08,01,57,19.80
2010,07,08,01,58,19.80
2010,07,08,01,59,19.80
2010,07,08,02,00,19.80
2010,07,08,02,01,19.80
2010,07,08,02,02,19.80
2010,07,08,02,03,19.80
2010,07,08,02,04,19.80
2010,07,08,02,05,19.80
2010,07,08,02,06,19.80
2010,07,08,02,07,19.80
2010,07,08,02,08,19.80
2010,07,08,02,09,19.80
2010,07,08,02,10,19.80
2010,07,08,02,11,19.90
2010,07,08,02,12,19.90
2010,07,08,02,13,19.90
2010,07,08,02,14,19.90
2010,07,08,02,15,20.00
2010,07,08,02,16,20.00
2010,07,08,02,17,20.10
2010,07,08,02,18,20.10
2010,07,08,02,19,20.10
2010,07,08,02,20,20.10
2010,07,08,02,21,20.10
2010,07,08,02,22,20.00
2010,07,08,02,23,20.00
2010,07,08,02,24,20.00
2010,07,08,02,25,20.10
2010,07,08,02,26,20.10
2010,07,08,02,27,20.10
2010,07,08,02,28,20.20
2010,07,08,02,29,20.30
2010,07,08,02,30,20.30
2010,07,08,02,31,20.40
2010,07,08,02,32,20.40
2010,07,08,02,33,20.50
2010,07,08,02,34,20.50
2010,07,08,02,35,20.50
2010,07,08,02,36,20.60
2010,07,08,02,37,20.60
2010,07,08,02,38,20.70
2010,07,08,02,39,20.70
2010,07,08,02,40,20.70
2010,07,08,02,41,20.80
2010,07,08,02,42,20.80
2010,07,08,02,43,20.80
2010,07,08,02,44,20.80
2010,07,08,02,45,20.90
2010,07,08,02,46,20.90
2010,07,08,02,47,20.90
2010,07,08,02,48,20.90
2010,07,08,02,49,20.90
2010,07,08,02,50,21.00
2010,07,08,02,51,21.00
2010,07,08,02,52,21.10
2010,07,08,02,53,21.10
2010,07,08,02,54,21.20
2010,07,08,02,55,21.20
2010,07,08,02,56,21.20
2010,07,08,02,57,21.20
2010,07,08,02,58,21.10
2010,07,08,02,59,21.10
2010,07,08,03,00,21.00
2010,07,08,03,01,20.90
2010,07,08,03,02,20.90
2010,07,08,03,03,20.80
2010,07,08,03,04,20.80
2010,07,08,03,05,20.70
2010,07,08,03,06,20.60
2010,07,08,03,07,20.50
2010,07,08,03,08,20.40
2010,07,08,03,09,20.30
2010,07,08,03,10,20.20
2010,07,08,03,11,20.20
2010,07,08,03,12,20.10
2010,07,08,03,13,20.00
2010,07,08,03,14,19.90
2010,07,08,03,15,19.90
2010,07,08,03,16,19.80
2010,07,08,03,17,19.80
2010,07,08,03,18,19.80
2010,07,08,03,19,19.70
2010,07,08,03,20,19.70
2010,07,08,03,21,19.70
2010,07,08,03,22,19.60
2010,07,08,03,23,19.60
2010,07,08,03,24,19.60
2010,07,08,03,25,19.60
2010,07,08,03,26,19.60
2010,07,08,03,27,19.60
2010,07,08,03,28,19.50
2010,07,08,03,29,19.50
2010,07,08,03,30,19.50
2010,07,08,03,31,19.40
2010,07,08,03,32,19.40
2010,07,08,03,33,19.30
2010,07,08,03,34,19.30
2010,07,08,03,35,19.30
2010,07,08,03,36,19.30
2010,07,08,03,37,19.20
2010,07,08,03,38,19.20
2010,07,08,03,39,19.20
2010,07,08,03,40,19.20
2010,07,08,03,41,19.20
2010,07,08,03,42,19.10
2010,07,08,03,43,19.10
2010,07,08,03,44,19.10
2010,07,08,03,45,19.10
2010,07,08,03,46,19.10
2010,07,08,03,47,19.10
2010,07,08,03,48,19.10
2010,07,08,03,49,19.10
2010,07,08,03,50,19.10
2010,07,08,03,51,19.10
2010,07,08,03,52,19.10
2010,07,08,03,53,19.10
2010,07,08,03,54,19.10
2010,07,08,03,55,19.00
2010,07,08,03,56,19.00
2010,07,08,03,57,19.00
2010,07,08,03,58,19.00
2010,07,08,03,59,19.00
2010,07,08,04,00,19.00
2010,07,08,04,01,19.00
2010,07,08,04,02,19.00
2010,07,08,04,03,19.00
2010,07,08,04,04,19.00
2010,07,08,04,05,19.00
2010,07,08,04,06,18.90
2010,07,08,04,07,18.90
2010,07,08,04,08,18.90
2010,07,08,04,09,18.90
2010,07,08,04,10,18.80
2010,07,08,04,11,18.80
2010,07,08,04,12,18.80
2010,07,08,04,13,18.80
2010,07,08,04,14,18.80
2010,07,08,04,15,18.80
2010,07,08,04,16,18.70
2010,07,08,04,17,18.70
2010,07,08,04,18,18.70
2010,07,08,04,19,18.70
2010,07,08,04,20,18.70
2010,07,08,04,21,18.70
2010,07,08,04,22,18.70
2010,07,08,04,23,18.70
2010,07,08,04,24,18.70
2010,07,08,04,25,18.70
2010,07,08,04,26,18.70
2010,07,08,04,27,18.70
2010,07,08,04,28,18.70
2010,07,08,04,29,18.70
2010,07,08,04,30,18.70
2010,07,08,04,31,18.80
2010,07,08,04,32,18.80
2010,07,08,04,33,18.80
2010,07,08,04,34,18.80
2010,07,08,04,35,18.80
2010,07,08,04,36,18.80
2010,07,08,04,37,18.80
2010,07,08,04,38,18.80
2010,07,08,04,39,18.80
2010,07,08,04,40,18.80
2010,07,08,04,41,18.80
2010,07,08,04,42,18.80
2010,07,08,04,43,18.80
2010,07,08,04,44,18.70
2010,07,08,04,45,18.70
2010,07,08,04,46,18.70
2010,07,08,04,47,18.70
2010,07,08,04,48,18.70
2010,07,08,04,49,18.70
2010,07,08,04,50,18.70
2010,07,08,04,51,18.70
2010,07,08,04,52,18.80
2010,07,08,04,53,18.80
2010,07,08,04,54,18.80
2010,07,08,04,55,18.80
2010,07,08,04,56,18.90
2010,07,08,04,57,18.90
2010,07,08,04,58,18.90
2010,07,08,04,59,19.00
2010,07,08,05,00,19.00
2010,07,08,05,01,19.00
2010,07,08,05,02,19.00
2010,07,08,05,03,19.10
2010,07,08,05,04,19.10
2010,07,08,05,05,19.10
2010,07,08,05,06,19.00
2010,07,08,05,07,19.00
2010,07,08,05,08,19.00
2010,07,08,05,09,18.90
2010,07,08,05,10,18.90
2010,07,08,05,11,18.90
2010,07,08,05,12,18.90
2010,07,08,05,13,18.90
2010,07,08,05,14,18.90
2010,07,08,05,15,18.80
2010,07,08,05,16,18.80
2010,07,08,05,17,18.80
2010,07,08,05,18,18.80
2010,07,08,05,19,18.80
2010,07,08,05,20,18.80
2010,07,08,05,21,18.80
2010,07,08,05,22,18.80
2010,07,08,05,23,18.80
2010,07,08,05,24,18.80
2010,07,08,05,25,18.80
2010,07,08,05,26,18.80
2010,07,08,05,27,18.80
2010,07,08,05,28,18.80
2010,07,08,05,29,18.80
2010,07,08,05,30,18.80
2010,07,08,05,31,18.80
2010,07,08,05,32,18.80
2010,07,08,05,33,18.80
2010,07,08,05,34,18.80
2010,07,08,05,35,18.80
2010,07,08,05,36,18.90
2010,07,08,05,37,18.90
2010,07,08,05,38,18.90
2010,07,08,05,39,18.90
2010,07,08,05,40,18.90
2010,07,08,05,41,18.90
2010,07,08,05,42,18.90
2010,07,08,05,43,18.90
2010,07,08,05,44,18.90
2010,07,08,05,45,18.90
2010,07,08,05,46,18.90
2010,07,08,05,47,18.90
2010,07,08,05,48,18.90
2010,07,08,05,49,18.90
2010,07,08,05,50,18.90
2010,07,08,05,51,18.90
2010,07,08,05,52,18.90
2010,07,08,05,53,18.90
2010,07,08,05,54,18.90
2010,07,08,05,55,18.90
2010,07,08,05,56,18.90
2010,07,08,05,57,19.00
2010,07,08,05,58,19.00
2010,07,08,05,59,19.00
2010,07,08,06,00,19.00
2010,07,08,06,01,19.00
2010,07,08,06,02,19.00
2010,07,08,06,03,19.00
2010,07,08,06,04,19.00
2010,07,08,06,05,18.90
2010,07,08,06,06,18.90
2010,07,08,06,07,18.90
2010,07,08,06,08,18.90
2010,07,08,06,09,18.90
2010,07,08,06,10,18.90
2010,07,08,06,11,18.90
2010,07,08,06,12,18.90
2010,07,08,06,13,18.90
2010,07,08,06,14,18.90
2010,07,08,06,15,18.90
2010,07,08,06,16,18.90
2010,07,08,06,17,18.90
2010,07,08,06,18,18.90
2010,07,08,06,19,18.90
2010,07,08,06,20,18.90
2010,07,08,06,21,18.90
2010,07,08,06,22,18.90
2010,07,08,06,23,18.90
2010,07,08,06,24,18.90
2010,07,08,06,25,18.90
2010,07,08,06,26,18.90
2010,07,08,06,27,19.00
2010,07,08,06,28,19.00
2010,07,08,06,29,19.00
2010,07,08,06,30,19.10
2010,07,08,06,31,19.10
2010,07,08,06,32,19.10
2010,07,08,06,33,19.20
2010,07,08,06,34,19.20
2010,07,08,06,35,19.30
2010,07,08,06,36,19.40
2010,07,08,06,37,19.50
2010,07,08,06,38,19.50
2010,07,08,06,39,19.60
2010,07,08,06,40,19.70
2010,07,08,06,41,19.70
2010,07,08,06,42,19.80
2010,07,08,06,43,19.80
2010,07,08,06,44,19.90
2010,07,08,06,45,19.90
2010,07,08,06,46,20.00
2010,07,08,06,47,20.00
2010,07,08,06,48,20.10
2010,07,08,06,49,20.10
2010,07,08,06,50,20.20
2010,07,08,06,51,20.30
2010,07,08,06,52,20.30
2010,07,08,06,53,20.40
2010,07,08,06,54,20.40
2010,07,08,06,55,20.50
2010,07,08,06,56,20.60
2010,07,08,06,57,20.60
2010,07,08,06,58,20.60
2010,07,08,06,59,20.70
2010,07,08,07,00,20.70
2010,07,08,07,01,20.80
2010,07,08,07,02,20.80
2010,07,08,07,03,20.90
2010,07,08,07,04,20.90
2010,07,08,07,05,21.00
2010,07,08,07,06,21.00
2010,07,08,07,07,21.10
2010,07,08,07,08,21.10
2010,07,08,07,09,21.20
2010,07,08,07,10,21.20
2010,07,08,07,11,21.30
2010,07,08,07,12,21.40
2010,07,08,07,13,21.50
2010,07,08,07,14,21.60
2010,07,08,07,15,21.70
2010,07,08,07,16,21.70
2010,07,08,07,17,21.80
2010,07,08,07,18,21.90
2010,07,08,07,19,22.00
2010,07,08,07,20,22.10
2010,07,08,07,21,22.20
2010,07,08,07,22,22.30
2010,07,08,07,23,22.40
2010,07,08,07,24,22.40
2010,07,08,07,25,22.50
2010,07,08,07,26,22.60
2010,07,08,07,27,22.70
2010,07,08,07,28,22.70
2010,07,08,07,29,22.80
2010,07,08,07,30,22.80
2010,07,08,07,31,22.90
2010,07,08,07,32,23.00
2010,07,08,07,33,23.00
2010,07,08,07,34,23.10
2010,07,08,07,35,23.10
2010,07,08,07,36,23.10
2010,07,08,07,37,23.20
2010,07,08,07,38,23.20
2010,07,08,07,39,23.20
2010,07,08,07,40,23.30
2010,07,08,07,41,23.30
2010,07,08,07,42,23.30
2010,07,08,07,43,23.30
2010,07,08,07,44,23.40
2010,07,08,07,45,23.40
2010,07,08,07,46,23.40
2010,07,08,07,47,23.40
2010,07,08,07,48,23.50
2010,07,08,07,49,23.50
2010,07,08,07,50,23.50
2010,07,08,07,51,23.60
2010,07,08,07,52,23.60
2010,07,08,07,53,23.60
2010,07,08,07,54,23.60
2010,07,08,07,55,23.60
2010,07,08,07,56,23.60
2010,07,08,07,57,23.70
2010,07,08,07,58,23.70
2010,07,08,07,59,23.70
2010,07,08,08,00,23.70
2010,07,08,08,01,23.80
2010,07,08,08,02,23.80
2010,07,08,08,03,23.80
2010,07,08,08,04,23.80
2010,07,08,08,05,23.90
2010,07,08,08,06,23.90
2010,07,08,08,07,23.90
2010,07,08,08,08,23.90
2010,07,08,08,09,24.00
2010,07,08,08,10,24.00
2010,07,08,08,11,24.10
2010,07,08,08,12,24.10
2010,07,08,08,13,24.10
2010,07,08,08,14,24.20
2010,07,08,08,15,24.20
2010,07,08,08,16,24.20
2010,07,08,08,17,24.20
2010,07,08,08,18,24.20
2010,07,08,08,19,24.10
2010,07,08,08,20,24.00
2010,07,08,08,21,23.80
2010,07,08,08,22,23.70
2010,07,08,08,23,23.70
2010,07,08,08,24,23.60
2010,07,08,08,25,23.60
2010,07,08,08,26,23.60
2010,07,08,08,27,23.50
2010,07,08,08,28,23.40
2010,07,08,08,29,23.40
2010,07,08,08,30,23.30
2010,07,08,08,31,23.30
2010,07,08,08,32,23.20
2010,07,08,08,33,23.20
2010,07,08,08,34,23.20
2010,07,08,08,35,23.10
2010,07,08,08,36,23.10
2010,07,08,08,37,23.00
2010,07,08,08,38,22.90
2010,07,08,08,39,22.80
2010,07,08,08,40,22.80
2010,07,08,08,41,22.70
2010,07,08,08,42,22.60
2010,07,08,08,43,22.50
2010,07,08,08,44,22.40
2010,07,08,08,45,22.40
2010,07,08,08,46,22.30
2010,07,08,08,47,22.30
2010,07,08,08,48,22.30
2010,07,08,08,49,22.30
2010,07,08,08,50,22.30
2010,07,08,08,51,22.30
2010,07,08,08,52,22.30
2010,07,08,08,53,22.40
2010,07,08,08,54,22.40
2010,07,08,08,55,22.50
2010,07,08,08,56,22.60
2010,07,08,08,57,22.70
2010,07,08,08,58,22.80
2010,07,08,08,59,22.80
2010,07,08,09,00,22.90
2010,07,08,09,01,23.00
2010,07,08,09,02,23.10
2010,07,08,09,03,23.10
2010,07,08,09,04,23.20
2010,07,08,09,05,23.20
2010,07,08,09,06,23.30
2010,07,08,09,07,23.40
2010,07,08,09,08,23.50
2010,07,08,09,09,23.50
2010,07,08,09,10,23.60
2010,07,08,09,11,23.70
2010,07,08,09,12,23.80
2010,07,08,09,13,23.80
2010,07,08,09,14,23.90
2010,07,08,09,15,23.90
2010,07,08,09,16,23.90
2010,07,08,09,17,24.00
2010,07,08,09,18,24.00
2010,07,08,09,19,24.10
2010,07,08,09,20,24.10
2010,07,08,09,21,24.10
2010,07,08,09,22,24.20
2010,07,08,09,23,24.20
2010,07,08,09,24,24.20
2010,07,08,09,25,24.20
2010,07,08,09,26,24.30
2010,07,08,09,27,24.30
2010,07,08,09,28,24.40
2010,07,08,09,29,24.40
2010,07,08,09,30,24.40
2010,07,08,09,31,24.40
2010,07,08,09,32,24.40
2010,07,08,09,33,24.40
2010,07,08,09,34,24.50
2010,07,08,09,35,24.60
2010,07,08,09,36,24.60
2010,07,08,09,37,24.60
2010,07,08,09,38,24.60
2010,07,08,09,39,24.60
2010,07,08,09,40,24.60
2010,07,08,09,41,24.50
2010,07,08,09,42,24.50
2010,07,08,09,43,24.50
2010,07,08,09,44,24.50
2010,07,08,09,45,24.50
2010,07,08,09,46,24.40
2010,07,08,09,47,24.40
2010,07,08,09,48,24.40
2010,07,08,09,49,24.30
2010,07,08,09,50,24.30
2010,07,08,09,51,24.20
2010,07,08,09,52,24.20
2010,07,08,09,53,24.20
2010,07,08,09,54,24.20
2010,07,08,09,55,24.20
2010,07,08,09,56,24.20
2010,07,08,09,57,24.20
2010,07,08,09,58,24.20
2010,07,08,09,59,24.10
2010,07,08,10,00,24.10
2010,07,08,10,01,24.10
2010,07,08,10,02,24.10
2010,07,08,10,03,24.10
2010,07,08,10,04,24.10
2010,07,08,10,05,24.10
2010,07,08,10,06,24.10
2010,07,08,10,07,24.10
2010,07,08,10,08,24.10
2010,07,08,10,09,24.10
2010,07,08,10,10,24.20
2010,07,08,10,11,24.20
2010,07,08,10,12,24.30
2010,07,08,10,13,24.30
2010,07,08,10,14,24.30
2010,07,08,10,15,24.30
2010,07,08,10,16,24.30
2010,07,08,10,17,24.40
2010,07,08,10,18,24.50
2010,07,08,10,19,24.50
2010,07,08,10,20,24.60
2010,07,08,10,21,24.70
2010,07,08,10,22,24.70
2010,07,08,10,23,24.70
2010,07,08,10,24,24.80
2010,07,08,10,25,24.80
2010,07,08,10,26,24.70
2010,07,08,10,27,24.70
2010,07,08,10,28,24.70
2010,07,08,10,29,24.60
2010,07,08,10,30,24.60
2010,07,08,10,31,24.60
2010,07,08,10,32,24.60
2010,07,08,10,33,24.60
2010,07,08,10,34,24.60
2010,07,08,10,35,24.60
2010,07,08,10,36,24.60
2010,07,08,10,37,24.60
2010,07,08,10,38,24.70
2010,07,08,10,39,24.70
2010,07,08,10,40,24.70
2010,07,08,10,41,24.80
2010,07,08,10,42,24.80
2010,07,08,10,43,24.70
2010,07,08,10,44,24.70
2010,07,08,10,45,24.70
2010,07,08,10,46,24.70
2010,07,08,10,47,24.70
2010,07,08,10,48,24.70
2010,07,08,10,49,24.80
2010,07,08,10,50,24.80
2010,07,08,10,51,24.90
2010,07,08,10,52,25.00
2010,07,08,10,53,25.00
2010,07,08,10,54,25.10
2010,07,08,10,55,25.20
2010,07,08,10,56,25.20
2010,07,08,10,57,25.20
2010,07,08,10,58,25.20
2010,07,08,10,59,25.20
2010,07,08,11,00,25.00
2010,07,08,11,01,25.00
2010,07,08,11,02,24.90
2010,07,08,11,03,24.90
2010,07,08,11,04,24.90
2010,07,08,11,05,24.90
2010,07,08,11,06,24.90
2010,07,08,11,07,24.90
2010,07,08,11,08,24.90
2010,07,08,11,09,24.90
2010,07,08,11,10,24.90
2010,07,08,11,11,24.80
2010,07,08,11,12,24.80
2010,07,08,11,13,24.80
2010,07,08,11,14,24.70
2010,07,08,11,15,24.70
2010,07,08,11,16,24.70
2010,07,08,11,17,24.70
2010,07,08,11,18,24.80
2010,07,08,11,19,24.80
2010,07,08,11,20,24.80
2010,07,08,11,21,24.90
2010,07,08,11,22,24.90
2010,07,08,11,23,25.00
2010,07,08,11,24,25.10
2010,07,08,11,25,25.10
2010,07,08,11,26,25.20
2010,07,08,11,27,25.30
2010,07,08,11,28,25.30
2010,07,08,11,29,25.40
2010,07,08,11,30,25.50
2010,07,08,11,31,25.60
2010,07,08,11,32,25.70
2010,07,08,11,33,25.70
2010,07,08,11,34,25.70
2010,07,08,11,35,25.80
2010,07,08,11,36,25.80
2010,07,08,11,37,25.80
2010,07,08,11,38,25.80
2010,07,08,11,39,25.90
2010,07,08,11,40,25.90
2010,07,08,11,41,26.00
2010,07,08,11,42,26.10
2010,07,08,11,43,26.10
2010,07,08,11,44,26.10
2010,07,08,11,45,26.20
2010,07,08,11,46,26.20
2010,07,08,11,47,26.20
2010,07,08,11,48,26.20
2010,07,08,11,49,26.20
2010,07,08,11,50,26.20
2010,07,08,11,51,26.20
2010,07,08,11,52,26.30
2010,07,08,11,53,26.30
2010,07,08,11,54,26.30
2010,07,08,11,55,26.40
2010,07,08,11,56,26.40
2010,07,08,11,57,26.50
2010,07,08,11,58,26.50
2010,07,08,11,59,26.60
2010,07,08,12,00,26.60
2010,07,08,12,01,26.60
2010,07,08,12,02,26.70
2010,07,08,12,03,26.80
2010,07,08,12,04,26.80
2010,07,08,12,05,26.90
2010,07,08,12,06,27.00
2010,07,08,12,07,27.10
2010,07,08,12,08,27.10
2010,07,08,12,09,27.20
2010,07,08,12,10,27.30
2010,07,08,12,11,27.30
2010,07,08,12,12,27.30
2010,07,08,12,13,27.20
2010,07,08,12,14,27.20
2010,07,08,12,15,27.20
2010,07,08,12,16,27.20
2010,07,08,12,17,27.10
2010,07,08,12,18,27.10
2010,07,08,12,19,27.10
2010,07,08,12,20,27.10
2010,07,08,12,21,27.10
2010,07,08,12,22,27.10
2010,07,08,12,23,27.10
2010,07,08,12,24,27.10
2010,07,08,12,25,27.20
2010,07,08,12,26,27.20
2010,07,08,12,27,27.30
2010,07,08,12,28,27.30
2010,07,08,12,29,27.30
2010,07,08,12,30,27.20
2010,07,08,12,31,27.20
2010,07,08,12,32,27.20
2010,07,08,12,33,27.20
2010,07,08,12,34,27.10
2010,07,08,12,35,27.10
2010,07,08,12,36,27.10
2010,07,08,12,37,27.10
2010,07,08,12,38,27.20
2010,07,08,12,39,27.20
2010,07,08,12,40,27.20
2010,07,08,12,41,27.30
2010,07,08,12,42,27.30
2010,07,08,12,43,27.30
2010,07,08,12,44,27.30
2010,07,08,12,45,27.40
2010,07,08,12,46,27.40
2010,07,08,12,47,27.50
2010,07,08,12,48,27.50
2010,07,08,12,49,27.60
2010,07,08,12,50,27.70
2010,07,08,12,51,27.80
2010,07,08,12,52,27.80
2010,07,08,12,53,27.90
2010,07,08,12,54,28.00
2010,07,08,12,55,28.00
2010,07,08,12,56,28.10
2010,07,08,12,57,28.20
2010,07,08,12,58,28.30
2010,07,08,12,59,28.40
2010,07,08,13,00,28.40
2010,07,08,13,01,28.40
2010,07,08,13,02,28.40
2010,07,08,13,03,28.30
2010,07,08,13,04,28.30
2010,07,08,13,05,28.20
2010,07,08,13,06,28.10
2010,07,08,13,07,28.10
2010,07,08,13,08,28.00
2010,07,08,13,09,28.00
2010,07,08,13,10,27.90
2010,07,08,13,11,28.00
2010,07,08,13,12,28.00
2010,07,08,13,13,28.00
2010,07,08,13,14,28.10
2010,07,08,13,15,28.10
2010,07,08,13,16,28.10
2010,07,08,13,17,28.10
2010,07,08,13,18,28.20
2010,07,08,13,19,28.20
2010,07,08,13,20,28.20
2010,07,08,13,21,28.30
2010,07,08,13,22,28.30
2010,07,08,13,23,28.50
2010,07,08,13,24,28.60
2010,07,08,13,25,28.70
2010,07,08,13,26,28.80
2010,07,08,13,27,28.80
2010,07,08,13,28,28.80
2010,07,08,13,29,28.80
2010,07,08,13,30,28.80
2010,07,08,13,31,28.80
2010,07,08,13,32,28.80
2010,07,08,13,33,28.80
2010,07,08,13,34,28.80
2010,07,08,13,35,28.90
2010,07,08,13,36,29.00
2010,07,08,13,37,29.10
2010,07,08,13,38,29.20
2010,07,08,13,39,29.20
2010,07,08,13,40,29.20
2010,07,08,13,41,29.20
2010,07,08,13,42,29.20
2010,07,08,13,43,29.20
2010,07,08,13,44,29.10
2010,07,08,13,45,29.00
2010,07,08,13,46,28.90
2010,07,08,13,47,28.90
2010,07,08,13,48,28.80
2010,07,08,13,49,28.80
2010,07,08,13,50,28.70
2010,07,08,13,51,28.70
2010,07,08,13,52,28.70
2010,07,08,13,53,28.70
2010,07,08,13,54,28.70
2010,07,08,13,55,28.80
2010,07,08,13,56,28.80
2010,07,08,13,57,28.90
2010,07,08,13,58,28.90
2010,07,08,13,59,28.90
2010,07,08,14,00,28.90
2010,07,08,14,01,28.90
2010,07,08,14,02,28.90
2010,07,08,14,03,28.90
2010,07,08,14,04,29.00
2010,07,08,14,05,29.10
2010,07,08,14,06,29.20
2010,07,08,14,07,29.30
2010,07,08,14,08,29.40
2010,07,08,14,09,29.50
2010,07,08,14,10,29.50
2010,07,08,14,11,29.60
2010,07,08,14,12,29.60
2010,07,08,14,13,29.70
2010,07,08,14,14,29.80
2010,07,08,14,15,29.80
2010,07,08,14,16,29.70
2010,07,08,14,17,29.70
2010,07,08,14,18,29.70
2010,07,08,14,19,29.60
2010,07,08,14,20,29.60
2010,07,08,14,21,29.60
2010,07,08,14,22,29.60
2010,07,08,14,23,29.60
2010,07,08,14,24,29.60
2010,07,08,14,25,29.60
2010,07,08,14,26,29.70
2010,07,08,14,27,29.70
2010,07,08,14,28,29.80
2010,07,08,14,29,29.80
2010,07,08,14,30,29.80
2010,07,08,14,31,29.90
2010,07,08,14,32,29.90
2010,07,08,14,33,29.90
2010,07,08,14,34,29.90
2010,07,08,14,35,29.80
2010,07,08,14,36,29.80
2010,07,08,14,37,29.90
2010,07,08,14,38,30.00
2010,07,08,14,39,30.00
2010,07,08,14,40,30.10
2010,07,08,14,41,30.20
2010,07,08,14,42,30.30
2010,07,08,14,43,30.30
2010,07,08,14,44,30.40
2010,07,08,14,45,30.40
2010,07,08,14,46,30.40
2010,07,08,14,47,30.50
2010,07,08,14,48,30.50
2010,07,08,14,49,30.60
2010,07,08,14,50,30.60
2010,07,08,14,51,30.60
2010,07,08,14,52,30.60
2010,07,08,14,53,30.60
2010,07,08,14,54,30.70
2010,07,08,14,55,30.80
2010,07,08,14,56,30.80
2010,07,08,14,57,30.90
2010,07,08,14,58,30.90
2010,07,08,14,59,30.90
2010,07,08,15,00,30.80
2010,07,08,15,01,30.80
2010,07,08,15,02,30.70
2010,07,08,15,03,30.70
2010,07,08,15,04,30.70
2010,07,08,15,05,30.70
2010,07,08,15,06,30.60
2010,07,08,15,07,30.60
2010,07,08,15,08,30.50
2010,07,08,15,09,30.50
2010,07,08,15,10,30.50
2010,07,08,15,11,30.50
2010,07,08,15,12,30.60
2010,07,08,15,13,30.60
2010,07,08,15,14,30.70
2010,07,08,15,15,30.70
2010,07,08,15,16,30.80
2010,07,08,15,17,30.80
2010,07,08,15,18,30.80
2010,07,08,15,19,30.90
2010,07,08,15,20,30.90
2010,07,08,15,21,30.90
2010,07,08,15,22,30.90
2010,07,08,15,23,30.90
2010,07,08,15,24,30.90
2010,07,08,15,25,30.80
2010,07,08,15,26,30.80
2010,07,08,15,27,30.80
2010,07,08,15,28,30.70
2010,07,08,15,29,30.70
2010,07,08,15,30,30.70
2010,07,08,15,31,30.60
2010,07,08,15,32,30.60
2010,07,08,15,33,30.60
2010,07,08,15,34,30.60
2010,07,08,15,35,30.60
2010,07,08,15,36,30.60
2010,07,08,15,37,30.60
2010,07,08,15,38,30.60
2010,07,08,15,39,30.60
2010,07,08,15,40,30.60
2010,07,08,15,41,30.60
2010,07,08,15,42,30.70
2010,07,08,15,43,30.70
2010,07,08,15,44,30.70
2010,07,08,15,45,30.80
2010,07,08,15,46,30.80
2010,07,08,15,47,30.80
2010,07,08,15,48,30.80
2010,07,08,15,49,30.90
2010,07,08,15,50,31.00
2010,07,08,15,51,31.00
2010,07,08,15,52,31.00
2010,07,08,15,53,30.90
2010,07,08,15,54,30.90
2010,07,08,15,55,30.90
2010,07,08,15,56,30.90
2010,07,08,15,57,30.90
2010,07,08,15,58,30.90
2010,07,08,15,59,31.00
2010,07,08,16,00,31.00
2010,07,08,16,01,31.10
2010,07,08,16,02,31.10
2010,07,08,16,03,31.10
2010,07,08,16,04,31.10
2010,07,08,16,05,31.20
2010,07,08,16,06,31.30
2010,07,08,16,07,31.40
2010,07,08,16,08,31.50
2010,07,08,16,09,31.60
2010,07,08,16,10,31.60
2010,07,08,16,11,31.70
2010,07,08,16,12,31.70
2010,07,08,16,13,31.70
2010,07,08,16,14,31.70
2010,07,08,16,15,31.60
2010,07,08,16,16,31.50
2010,07,08,16,17,31.50
2010,07,08,16,18,31.40
2010,07,08,16,19,31.30
2010,07,08,16,20,31.20
2010,07,08,16,21,31.20
2010,07,08,16,22,31.20
2010,07,08,16,23,31.20
2010,07,08,16,24,31.20
2010,07,08,16,25,31.20
2010,07,08,16,26,31.20
2010,07,08,16,27,31.20
2010,07,08,16,28,31.20
2010,07,08,16,29,31.20
2010,07,08,16,30,31.20
2010,07,08,16,31,31.20
2010,07,08,16,32,31.20
2010,07,08,16,33,31.30
2010,07,08,16,34,31.30
2010,07,08,16,35,31.30
2010,07,08,16,36,31.30
2010,07,08,16,37,31.20
2010,07,08,16,38,31.10
2010,07,08,16,39,31.10
2010,07,08,16,40,31.00
2010,07,08,16,41,31.00
2010,07,08,16,42,30.90
2010,07,08,16,43,30.90
2010,07,08,16,44,30.90
2010,07,08,16,45,30.80
2010,07,08,16,46,30.80
2010,07,08,16,47,30.70
2010,07,08,16,48,30.70
2010,07,08,16,49,30.60
2010,07,08,16,50,30.60
2010,07,08,16,51,30.60
2010,07,08,16,52,30.60
2010,07,08,16,53,30.60
2010,07,08,16,54,30.60
2010,07,08,16,55,30.60
2010,07,08,16,56,30.60
2010,07,08,16,57,30.60
2010,07,08,16,58,30.60
2010,07,08,16,59,30.60
2010,07,08,17,00,30.70
2010,07,08,17,01,30.70
2010,07,08,17,02,30.80
2010,07,08,17,03,30.80
2010,07,08,17,04,30.90
2010,07,08,17,05,30.90
2010,07,08,17,06,30.90
2010,07,08,17,07,30.90
2010,07,08,17,08,31.00
2010,07,08,17,09,31.10
2010,07,08,17,10,31.10
2010,07,08,17,11,31.20
2010,07,08,17,12,31.30
2010,07,08,17,13,31.30
2010,07,08,17,14,31.40
2010,07,08,17,15,31.40
2010,07,08,17,16,31.50
2010,07,08,17,17,31.60
2010,07,08,17,18,31.70
2010,07,08,17,19,31.70